SR6WVX Weather Reports


Display with metric or nautical units.
time (UTC)temp
F
wind
direction
speed
MPH
gust
MPH
rain 1hr
in
rain 24hr
in
rain mn
in
humidity
%
barometer
mb
20181115182639 44 90 0.0 0.0 0.00 0.00 0.00 75 1031.0
20181115182139 44 90 0.0 0.0 0.00 0.00 0.00 75 1030.9
20181115181638 44 90 0.0 0.0 0.00 0.00 0.00 74 1031.0
20181115181138 44 90 0.0 0.0 0.00 0.00 0.00 74 1030.9
20181115180638 45 112 0.0 0.0 0.00 0.00 0.00 73 1030.9
20181115180137 45 112 0.0 0.0 0.00 0.00 0.00 72 1030.9
20181115175637 46 112 0.0 0.0 0.00 0.00 0.00 72 1030.9
20181115175137 46 112 0.0 0.0 0.00 0.00 0.00 70 1030.8
20181115174637 46 112 0.0 0.0 0.00 0.00 0.00 71 1030.5
20181115174136 46 112 0.0 0.0 0.00 0.00 0.00 72 1030.6
20181115173636 46 112 0.0 3.0 0.00 0.00 0.00 72 1030.6
20181115173136 46 112 3.0 3.0 0.00 0.00 0.00 74 1030.6
20181115172636 46 112 0.0 8.0 0.00 0.00 0.00 76 1030.7
20181115172135 46 90 8.0 8.0 0.00 0.00 0.00 79 1030.8
20181115171635 45 112 0.0 4.0 0.00 0.00 0.00 79 1030.8
20181115171135 45 67 4.0 4.0 0.00 0.00 0.00 82 1030.8
20181115170635 45 90 0.0 0.0 0.00 0.00 0.00 83 1030.7
20181115170134 45 90 0.0 6.0 0.00 0.00 0.00 85 1030.5
20181115165634 45 112 6.0 6.0 0.00 0.00 0.00 87 1030.5
20181115165134 45 67 0.0 0.0 0.00 0.00 0.00 87 1030.5
20181115164633 44 67 0.0 0.0 0.00 0.00 0.00 87 1030.5
20181115164133 44 67 0.0 0.0 0.00 0.00 0.00 87 1030.5
20181115163633 44 67 0.0 0.0 0.00 0.00 0.00 86 1030.5
20181115163133 44 67 0.0 0.0 0.00 0.00 0.00 86 1030.2
20181115162632 44 67 0.0 0.0 0.00 0.00 0.00 86 1030.1
20181115162132 44 67 0.0 0.0 0.00 0.00 0.00 85 1030.2
20181115161632 45 67 0.0 0.0 0.00 0.00 0.00 85 1030.3
20181115161132 45 67 0.0 0.0 0.00 0.00 0.00 85 1030.3
20181115160631 45 67 0.0 0.0 0.00 0.00 0.00 85 1030.4
20181115160131 45 67 0.0 0.0 0.00 0.00 0.00 85 1030.2
20181115155631 45 67 0.0 0.0 0.00 0.00 0.00 84 1030.2
20181115155131 46 67 0.0 0.0 0.00 0.00 0.00 84 1030.2
20181115154630 46 67 0.0 0.0 0.00 0.00 0.00 84 1030.2
20181115154130 46 67 0.0 0.0 0.00 0.00 0.00 84 1030.3
20181115153630 46 67 0.0 0.0 0.00 0.00 0.00 84 1030.4
20181115153130 46 67 0.0 0.0 0.00 0.00 0.00 84 1030.3
20181115152629 46 67 0.0 0.0 0.00 0.00 0.00 83 1030.5
20181115152129 46 112 0.0 0.0 0.00 0.00 0.00 83 1030.3
20181115151629 46 135 0.0 0.0 0.00 0.00 0.00 83 1030.3
20181115151128 46 135 0.0 0.0 0.00 0.00 0.00 83 1030.2
20181115150628 46 135 0.0 0.0 0.00 0.00 0.00 83 1030.2
20181115150128 46 135 0.0 0.0 0.00 0.00 0.00 82 1030.2
20181115145628 46 90 0.0 0.0 0.00 0.00 0.00 82 1030.2
20181115145127 47 112 0.0 0.0 0.00 0.00 0.00 82 1030.2
20181115144627 47 112 0.0 0.0 0.00 0.00 0.00 82 1030.4
20181115144127 47 90 0.0 0.0 0.00 0.00 0.00 81 1030.4
20181115143627 48 112 0.0 0.0 0.00 0.00 0.00 81 1030.4
20181115143126 48 112 0.0 0.0 0.00 0.00 0.00 81 1030.3
20181115142626 49 67 0.0 0.0 0.00 0.00 0.00 78 1030.3
20181115142126 50 112 0.0 0.0 0.00 0.00 0.00 77 1030.3
20181115141626 51 90 0.0 3.0 0.00 0.00 0.00 76 1030.4
20181115141125 51 90 0.0 0.0 0.00 0.00 0.00 77 1030.2
20181115140625 51 90 0.0 0.0 0.00 0.00 0.00 77 1030.4
20181115140125 51 90 0.0 0.0 0.00 0.00 0.00 77 1030.4
20181115135625 52 90 0.0 0.0 0.00 0.00 0.00 77 1030.3
20181115135124 52 90 0.0 0.0 0.00 0.00 0.00 77 1030.3
20181115134624 52 67 0.0 0.0 0.00 0.00 0.00 78 1030.4
20181115134124 52 90 0.0 0.0 0.00 0.00 0.00 77 1030.3
20181115133623 52 90 0.0 1.0 0.00 0.00 0.00 77 1030.2
20181115133123 52 90 1.0 1.0 0.00 0.00 0.00 77 1030.3
20181115132623 52 112 0.0 0.0 0.00 0.00 0.00 76 1030.3
20181115132123 52 90 0.0 0.0 0.00 0.00 0.00 76 1030.3
20181115131622 52 90 0.0 0.0 0.00 0.00 0.00 77 1030.4
20181115131122 52 90 0.0 0.0 0.00 0.00 0.00 77 1030.2
20181115130622 52 90 0.0 0.0 0.00 0.00 0.00 79 1030.2
20181115130122 52 67 0.0 0.0 0.00 0.00 0.00 80 1029.9
20181115125621 50 90 0.0 0.0 0.00 0.00 0.00 83 1030.0
20181115125121 49 90 0.0 0.0 0.00 0.00 0.00 85 1030.1
20181115124621 49 112 0.0 0.0 0.00 0.00 0.00 84 1030.1
20181115124121 50 112 0.0 0.0 0.00 0.00 0.00 83 1030.2
20181115123620 51 90 0.0 1.0 0.00 0.00 0.00 83 1030.2
20181115123120 51 67 0.0 0.0 0.00 0.00 0.00 87 1030.3
20181115122620 49 67 0.0 0.0 0.00 0.00 0.00 91 1030.1
20181115122120 48 90 0.0 0.0 0.00 0.00 0.00 92 1030.2
20181115121619 48 67 0.0 0.0 0.00 0.00 0.00 91 1030.1
20181115121119 47 90 0.0 0.0 0.00 0.00 0.00 92 1030.2
20181115120619 47 112 0.0 0.0 0.00 0.00 0.00 92 1030.2
20181115120118 47 90 0.0 0.0 0.00 0.00 0.00 93 1030.3
20181115115618 47 67 0.0 0.0 0.00 0.00 0.00 93 1030.4
20181115115118 47 67 0.0 2.0 0.00 0.00 0.00 93 1030.2
20181115114618 47 45 2.0 2.0 0.00 0.00 0.00 93 1030.3
20181115114117 47 67 0.0 0.0 0.00 0.00 0.00 94 1030.3
20181115113617 47 67 0.0 0.0 0.00 0.00 0.00 94 1030.4
20181115113117 46 67 0.0 0.0 0.00 0.00 0.00 94 1030.5
20181115112617 46 67 0.0 0.0 0.00 0.00 0.00 94 1030.4
20181115112116 46 67 0.0 0.0 0.00 0.00 0.00 94 1030.3
20181115111616 46 90 0.0 0.0 0.00 0.00 0.00 94 1030.3
20181115111116 45 90 0.0 0.0 0.00 0.00 0.00 94 1030.4
20181115110616 45 112 0.0 0.0 0.00 0.00 0.00 94 1030.4
20181115110115 45 90 0.0 0.0 0.00 0.00 0.00 94 1030.4
20181115105615 46 90 0.0 0.0 0.00 0.00 0.00 94 1030.3
20181115105115 46 112 0.0 0.0 0.00 0.00 0.00 94 1030.4
20181115104614 46 112 0.0 0.0 0.00 0.00 0.00 94 1030.4
20181115104114 45 112 0.0 0.0 0.00 0.00 0.00 94 1030.4
20181115103617 45 135 0.0 0.0 0.00 0.00 0.00 94 1030.4
20181115103115 44 112 0.0 0.0 0.00 0.00 0.00 94 1030.3
20181115102613 44 112 0.0 0.0 0.00 0.00 0.00 94 1030.5
20181115102113 44 112 0.0 0.0 0.00 0.00 0.00 94 1030.4
20181115101613 44 112 0.0 0.0 0.00 0.00 0.00 94 1030.6
20181115101113 44 112 0.0 0.0 0.00 0.00 0.00 94 1030.5
20181115100612 44 112 0.0 0.0 0.00 0.00 0.00 94 1030.4
20181115100112 44 112 0.0 0.0 0.00 0.00 0.00 94 1030.3
20181115095612 43 112 0.0 0.0 0.00 0.00 0.00 94 1030.3
20181115095112 43 112 0.0 0.0 0.00 0.00 0.00 94 1030.2
20181115094611 43 112 0.0 0.0 0.00 0.00 0.00 94 1030.1
20181115094111 43 112 0.0 0.0 0.00 0.00 0.00 94 1030.1
20181115093611 43 112 0.0 0.0 0.00 0.00 0.00 94 1030.3
20181115093111 43 112 0.0 0.0 0.00 0.00 0.00 94 1030.4
20181115092610 42 112 0.0 0.0 0.00 0.00 0.00 94 1030.3
20181115092110 42 112 0.0 0.0 0.00 0.00 0.00 94 1030.5
20181115091610 42 112 0.0 0.0 0.00 0.00 0.00 94 1030.5
20181115091109 41 112 0.0 0.0 0.00 0.00 0.00 94 1030.5
20181115090609 41 90 0.0 0.0 0.00 0.00 0.00 94 1030.5
20181115090109 41 90 0.0 0.0 0.00 0.00 0.00 94 1030.6
20181115085609 41 90 0.0 0.0 0.00 0.00 0.00 94 1030.6
20181115085108 41 90 0.0 0.0 0.00 0.00 0.00 94 1030.6
20181115084608 41 112 0.0 0.0 0.00 0.00 0.00 94 1030.7
20181115084108 40 90 0.0 0.0 0.00 0.00 0.00 94 1030.4
20181115083608 40 90 0.0 0.0 0.00 0.00 0.00 94 1030.5
20181115083107 40 90 0.0 0.0 0.00 0.00 0.00 94 1030.5
20181115082607 40 67 0.0 0.0 0.00 0.00 0.00 94 1030.5
20181115082107 39 67 0.0 0.0 0.00 0.00 0.00 94 1030.5
20181115081607 39 90 0.0 0.0 0.00 0.00 0.00 94 1030.3
20181115081106 39 90 0.0 0.0 0.00 0.00 0.00 94 1030.2
20181115080606 39 90 0.0 0.0 0.00 0.00 0.00 94 1030.2
20181115080106 39 67 0.0 0.0 0.00 0.00 0.00 94 1030.2
20181115075606 38 67 0.0 0.0 0.00 0.00 0.00 93 1030.2
20181115075105 38 67 0.0 0.0 0.00 0.00 0.00 93 1030.2
20181115074605 38 67 0.0 0.0 0.00 0.00 0.00 93 1030.2
20181115074105 37 67 0.0 0.0 0.00 0.00 0.00 93 1030.2
20181115073605 37 67 0.0 0.0 0.00 0.00 0.00 93 1030.2
20181115073104 37 67 0.0 0.0 0.00 0.00 0.00 93 1030.1
20181115072604 37 67 0.0 0.0 0.00 0.00 0.00 93 1030.2
20181115072104 36 67 0.0 0.0 0.00 0.00 0.00 93 1030.1
20181115071603 177 337 0.0 0.0 0.00 0.00 0.00 10 1030.1
20181115071103 177 337 0.0 0.0 0.00 0.00 0.00 10 1030.0
20181115070603 177 337 0.0 0.0 0.00 0.00 0.00 10 1030.0
20181115070103 177 337 0.0 0.0 0.00 0.00 0.00 10 1030.0
20181115065602 177 337 0.0 0.0 0.00 0.00 0.00 10 1029.9
20181115065102 177 337 0.0 0.0 0.00 0.00 0.00 10 1030.0
20181115064602 177 337 0.0 0.0 0.00 0.00 0.00 10 1030.0
20181115064102 177 337 0.0 0.0 0.00 0.00 0.00 10 1030.1
20181115063601 177 337 0.0 0.0 0.00 0.00 0.00 10 1030.1
20181115063101 177 337 0.0 0.0 0.00 0.00 0.00 10 1030.0
20181115062601 33 337 0.0 0.0 0.00 0.00 0.00 92 1029.9
20181115062101 33 337 0.0 0.0 0.00 0.00 0.00 92 1029.9
20181115061600 33 337 0.0 0.0 0.00 0.00 0.00 92 1029.9
20181115061100 33 337 0.0 0.0 0.00 0.00 0.00 92 1029.9
20181115060600 32 337 0.0 0.0 0.00 0.00 0.00 92 1029.9
20181115060100 32 337 0.0 0.0 0.00 0.00 0.00 92 1030.0
20181115055559 32 337 0.0 0.0 0.00 0.00 0.00 92 1029.9
20181115055059 32 337 0.0 0.0 0.00 0.00 0.00 92 1029.9
20181115054559 32 337 0.0 0.0 0.00 0.00 0.00 92 1029.8
20181115054058 31 337 0.0 0.0 0.00 0.00 0.00 92 1029.8
20181115053558 31 337 0.0 0.0 0.00 0.00 0.00 92 1029.7
20181115053058 31 337 0.0 0.0 0.00 0.00 0.00 92 1029.9
20181115052558 31 337 0.0 0.0 0.00 0.00 0.00 92 1029.8
20181115052057 31 337 0.0 0.0 0.00 0.00 0.00 92 1029.8
20181115051557 31 337 0.0 0.0 0.00 0.00 0.00 92 1029.8
20181115051057 31 337 0.0 0.0 0.00 0.00 0.00 92 1029.6
20181115050557 31 337 0.0 0.0 0.00 0.00 0.00 92 1029.6
20181115050056 31 337 0.0 0.0 0.00 0.00 0.00 92 1029.6
20181115045556 31 337 0.0 0.0 0.00 0.00 0.00 92 1029.5
20181115045056 31 337 0.0 0.0 0.00 0.00 0.00 92 1029.5
20181115044555 31 337 0.0 0.0 0.00 0.00 0.00 92 1029.6
20181115044055 31 337 0.0 0.0 0.00 0.00 0.00 92 1029.4
20181115043555 31 337 0.0 0.0 0.00 0.00 0.00 92 1029.5
20181115043055 31 337 0.0 0.0 0.00 0.00 0.00 92 1029.2
20181115042554 31 337 0.0 0.0 0.00 0.00 0.00 92 1029.3
20181115042054 31 337 0.0 0.0 0.00 0.00 0.00 92 1029.0
20181115041554 31 337 0.0 0.0 0.00 0.00 0.00 92 1029.5
20181115041054 31 337 0.0 0.0 0.00 0.00 0.00 92 1029.4
20181115040553 31 337 0.0 0.0 0.00 0.00 0.00 92 1029.3
20181115040053 31 337 0.0 0.0 0.00 0.00 0.00 92 1029.4
20181115035553 31 337 0.0 0.0 0.00 0.00 0.00 91 1029.5
20181115035053 32 337 0.0 0.0 0.00 0.00 0.00 92 1029.3
20181115034552 32 337 0.0 0.0 0.00 0.00 0.00 92 1029.3
20181115034052 32 337 0.0 0.0 0.00 0.00 0.00 92 1029.5
20181115033552 32 337 0.0 0.0 0.00 0.00 0.00 92 1029.5
20181115033051 32 337 0.0 0.0 0.00 0.00 0.00 91 1029.5
20181115032551 32 337 0.0 0.0 0.00 0.00 0.00 92 1029.5
20181115032051 32 337 0.0 0.0 0.00 0.00 0.00 91 1029.5
20181115031551 33 337 0.0 0.0 0.00 0.00 0.00 92 1029.6
20181115031050 33 337 0.0 0.0 0.00 0.00 0.00 91 1029.5
20181115030550 33 337 0.0 0.0 0.00 0.00 0.00 91 1029.4
20181115030050 33 337 0.0 0.0 0.00 0.00 0.00 91 1029.4
20181115025550 33 337 0.0 0.0 0.00 0.00 0.00 91 1029.3
20181115025049 33 337 0.0 0.0 0.00 0.00 0.00 91 1029.2
20181115024549 33 337 0.0 0.0 0.00 0.00 0.00 91 1029.2
20181115024049 33 337 0.0 0.0 0.00 0.00 0.00 91 1029.2
20181115023549 33 337 0.0 0.0 0.00 0.00 0.00 91 1029.0
20181115023048 34 337 0.0 0.0 0.00 0.00 0.00 91 1029.1
20181115022548 34 337 0.0 0.0 0.00 0.00 0.00 91 1029.2
20181115022048 34 337 0.0 0.0 0.00 0.00 0.00 91 1029.0
20181115021548 34 337 0.0 0.0 0.00 0.00 0.00 91 1029.1
20181115021047 34 337 0.0 0.0 0.00 0.00 0.00 91 1029.1
20181115020547 34 337 0.0 0.0 0.00 0.00 0.00 91 1028.9
20181115020047 34 337 0.0 0.0 0.00 0.00 0.00 91 1029.1
20181115015547 34 337 0.0 0.0 0.00 0.00 0.00 91 1029.3
20181115015046 34 337 0.0 0.0 0.00 0.00 0.00 91 1029.3
20181115014546 34 337 0.0 0.0 0.00 0.00 0.00 91 1029.2
20181115014046 34 337 0.0 0.0 0.00 0.00 0.00 91 1029.2
20181115013545 34 337 0.0 0.0 0.00 0.00 0.00 91 1029.2
20181115013045 34 337 0.0 0.0 0.00 0.00 0.00 91 1029.3
20181115012545 33 337 0.0 0.0 0.00 0.00 0.00 91 1029.2
20181115012045 33 337 0.0 0.0 0.00 0.00 0.00 91 1029.3
20181115011544 33 337 0.0 0.0 0.00 0.00 0.00 91 1029.4
20181115011044 33 337 0.0 0.0 0.00 0.00 0.00 91 1029.4
20181115010544 33 337 0.0 0.0 0.00 0.00 0.00 91 1029.3
20181115010044 33 337 0.0 0.0 0.00 0.00 0.00 91 1029.3
20181115005543 33 337 0.0 0.0 0.00 0.00 0.00 91 1029.1
20181115005043 32 337 0.0 0.0 0.00 0.00 0.00 91 1029.2
20181115004543 32 337 0.0 0.0 0.00 0.00 0.00 91 1029.2
20181115004043 32 337 0.0 0.0 0.00 0.00 0.00 91 1029.2
20181115003542 33 337 0.0 0.0 0.00 0.00 0.00 91 1029.2
20181115003042 33 337 0.0 0.0 0.00 0.00 0.00 91 1029.0
20181115002542 33 337 0.0 0.0 0.00 0.00 0.00 91 1028.9
20181115002042 33 337 0.0 0.0 0.00 0.00 0.00 91 1029.0
20181115001541 33 337 0.0 0.0 0.00 0.00 0.00 91 1029.2
20181115001041 33 337 0.0 0.0 0.00 0.00 0.00 91 1029.2
20181115000541 33 337 0.0 0.0 0.00 0.00 0.00 91 1029.3
20181115000040 33 337 0.0 0.0 0.00 0.00 0.00 91 1029.1
20181114235540 33 337 0.0 0.0 0.00 0.00 0.00 91 1029.2
20181114235040 33 337 0.0 0.0 0.00 0.00 0.00 91 1029.2
20181114234539 33 337 0.0 0.0 0.00 0.00 0.00 91 1029.1
20181114234039 33 337 0.0 0.0 0.00 0.00 0.00 91 1029.1
20181114233539 33 337 0.0 0.0 0.00 0.00 0.00 91 1029.2
20181114233039 33 337 0.0 0.0 0.00 0.00 0.00 91 1029.3
20181114232538 33 337 0.0 0.0 0.00 0.00 0.00 91 1029.1
20181114232038 34 337 0.0 0.0 0.00 0.00 0.00 91 1029.2
20181114231538 34 337 0.0 0.0 0.00 0.00 0.00 91 1029.2
20181114231038 34 337 0.0 0.0 0.00 0.00 0.00 91 1029.0
20181114230537 34 337 0.0 0.0 0.00 0.00 0.00 91 1029.1
20181114230037 34 337 0.0 0.0 0.00 0.00 0.00 91 1029.2
20181114225537 34 337 0.0 0.0 0.00 0.00 0.00 91 1029.2
20181114225037 34 337 0.0 0.0 0.00 0.00 0.00 91 1029.2
20181114224536 34 337 0.0 0.0 0.00 0.00 0.00 90 1029.2
20181114224036 34 337 0.0 0.0 0.00 0.00 0.00 90 1029.2
20181114223536 34 337 0.0 0.0 0.00 0.00 0.00 90 1029.2
20181114223036 33 337 0.0 0.0 0.00 0.00 0.00 90 1029.2
20181114222535 34 337 0.0 0.0 0.00 0.00 0.00 90 1029.3
20181114222035 34 337 0.0 0.0 0.00 0.00 0.00 90 1029.2
20181114221535 34 337 0.0 0.0 0.00 0.00 0.00 90 1029.1
20181114221034 34 337 0.0 0.0 0.00 0.00 0.00 90 1029.1
20181114220534 34 337 0.0 0.0 0.00 0.00 0.00 90 1029.2
20181114220034 34 337 0.0 0.0 0.00 0.00 0.00 90 1029.2
20181114215534 35 337 0.0 0.0 0.00 0.00 0.00 90 1029.3
20181114215033 35 337 0.0 0.0 0.00 0.00 0.00 90 1029.1
20181114214533 35 337 0.0 0.0 0.00 0.00 0.00 90 1029.0
20181114214033 35 337 0.0 0.0 0.00 0.00 0.00 90 1029.1
20181114213533 35 337 0.0 0.0 0.00 0.00 0.00 90 1029.2
20181114213033 35 337 0.0 0.0 0.00 0.00 0.00 90 1029.1
20181114212532 35 337 0.0 0.0 0.00 0.00 0.00 90 1029.0
20181114212032 35 337 0.0 0.0 0.00 0.00 0.00 90 1029.0
20181114211532 35 337 0.0 0.0 0.00 0.00 0.00 90 1029.0
20181114211031 36 337 0.0 0.0 0.00 0.00 0.00 90 1028.9
20181114210531 36 337 0.0 0.0 0.00 0.00 0.00 90 1028.8
20181114210031 36 337 0.0 0.0 0.00 0.00 0.00 90 1028.7
20181114205531 36 337 0.0 0.0 0.00 0.00 0.00 90 1028.7
20181114205030 36 337 0.0 0.0 0.00 0.00 0.00 90 1028.9
20181114204530 36 337 0.0 0.0 0.00 0.00 0.00 90 1029.1
20181114204030 36 337 0.0 0.0 0.00 0.00 0.00 90 1029.2
20181114203530 36 337 0.0 0.0 0.00 0.00 0.00 90 1029.1
20181114203029 36 337 0.0 0.0 0.00 0.00 0.00 90 1029.2
20181114202529 37 337 0.0 0.0 0.00 0.00 0.00 90 1029.1
20181114202029 37 337 0.0 0.0 0.00 0.00 0.00 90 1029.1
20181114201528 37 337 0.0 0.0 0.00 0.00 0.00 90 1029.0
20181114201028 37 337 0.0 0.0 0.00 0.00 0.00 90 1029.1
20181114200528 37 337 0.0 0.0 0.00 0.00 0.00 90 1029.0
20181114200028 37 337 0.0 0.0 0.00 0.00 0.00 90 1029.1